Location: Frydek-Mistek
(49.6830°N, 18.3330°E)
Time: 21:12:06
(UTC+01:00)

Courier 1B Rocket - All Passes

Search period start: 26 November 2014 00:00
Search period end: 06 December 2014 00:00
Orbit: 920 x 1202 km, 28.2° (Epoch: 24 November)

Date Brightness Start Highest point End Pass type
(mag) Time Alt. Az. Time Alt. Az. Time Alt. Az.
26 Nov - 14:51:04 10° SSW 14:52:56 11° S 14:54:45 10° SSE daylight
27 Nov - 13:50:26 10° SSW 13:52:22 11° S 13:54:16 10° SSE daylight
28 Nov - 12:50:30 10° S 12:51:47 11° S 12:53:03 10° SSE daylight
28 Nov - 14:41:44 10° SSW 14:43:49 11° S 14:45:51 10° SSE daylight
29 Nov - 13:40:35 10° SSW 13:43:14 12° S 13:45:49 10° SSE daylight
30 Nov - 12:39:54 10° SSW 12:42:37 12° S 12:45:17 10° SSE daylight
30 Nov - 14:33:03 10° SSW 14:34:40 11° S 14:36:15 10° S daylight
01 Dec - 11:39:45 10° S 11:41:59 11° S 11:44:12 10° SSE daylight
01 Dec - 13:31:18 10° SSW 13:34:05 12° S 13:36:47 10° SSE daylight
02 Dec - 12:30:14 10° SSW 12:33:27 13° S 12:36:36 10° SSE daylight
03 Dec - 11:29:35 10° SSW 11:32:48 13° S 11:35:57 10° SSE daylight
03 Dec - 13:22:32 10° SSW 13:24:53 12° S 13:27:13 10° S daylight
04 Dec - 10:29:25 10° S 10:32:08 12° S 10:34:49 10° SSE daylight
04 Dec - 12:21:02 10° SSW 12:24:16 13° S 12:27:27 10° SSE daylight
05 Dec - 09:30:21 10° S 09:31:28 10° SSE 09:32:36 10° SSE daylight
05 Dec - 11:20:03 10° SSW 11:23:36 14° S 11:27:06 10° SSE daylight
05 Dec - 13:15:01 10° SSW 13:15:40 10° SSW 13:16:19 10° S daylight
